Wind_Speed
8 9 12 7 7 6 16 15 15 14 11 9 10 11 10 8 7 5 6 7 8 8 11 13 12 11 10 11 11 12 12 14 16 16 16 16 18 18 18 18 19 19 19
12 10 8 7 8 8 14 16 17 14 12 10 8 10 8 6 5 4 5 6 6 8 10 11 10 10 10 10 10 11 12 12 13 14 15 15 15 15 15 14 15 17 17
9 9 7 7 7 7 11 15 16 14 13 10 8 10 7 5 3 3 4 5 6 9 9 9 9 9 8 9 9 9 10 11 12 12 11 12 12 11 11 11 14 16 17
8 9 10 12 12 9 14 18 15 13 10 10 10 10 7 3 3 3 3 4 8 9 8 8 8 7 7 8 8 8 9 8 9 9 8 9 9 7 7 9 11 14 16
7 8 10 13 16 15 15 18 14 14 10 9 11 8 6 3 3 3 3 6 8 6 6 5 6 6 6 6 6 6 6 7 7 5 6 7 8 8 8 11 13 15 18
7 8 12 14 16 17 16 15 13 12 9 12 10 8 5 5 3 3 5 7 5 5 5 4 5 5 5 5 5 5 5 4 2 4 5 6 6 8 9 12 15 17 20
8 12 15 17 17 16 15 14 12 11 10 10 8 6 4 3 4 3 5 3 3 3 3 2 3 3 4 3 2 1 1 2 3 4 6 7 8 10 12 14 17 20 23
9 14 16 17 13 13 14 13 11 13 10 9 7 4 3 3 3 2 2 1 1 1 1 2 1 1 0 1 3 4 4 5 6 8 9 11 13 14 17 19 22 24 26
8 15 19 17 14 12 12 14 14 13 11 9 7 4 3 3 2 2 2 2 1 1 2 1 2 3 3 4 6 7 8 9 10 12 13 15 17 19 20 23 25 27 29
10 13 17 16 14 10 9 12 14 12 12 9 7 5 3 3 2 3 3 2 2 3 4 5 6 6 6 8 10 11 12 13 14 16 18 20 21 24 26 28 30 31 32
14 16 16 15 13 13 11 8 9 10 10 9 6 5 4 5 5 5 5 3 4 4 5 7 9 9 9 10 12 15 16 17 19 20 22 24 25 27 28 31 32 33 34
16 17 16 17 16 13 11 10 8 8 8 7 6 5 5 6 7 7 8 6 6 6 7 9 10 11 12 12 14 16 18 20 22 23 25 26 28 30 30 31 32 34 35
13 19 18 18 16 14 12 11 13 11 8 4 6 6 8 11 12 11 10 10 9 10 11 11 10 11 12 14 15 17 19 21 23 25 28 30 31 31 32 34 35 35 36
18 21 21 21 18 15 14 14 14 13 12 11 11 11 10 11 12 12 12 12 12 12 12 12 11 11 13 14 16 18 20 22 24 27 29 31 33 34 35 36 37 38 39
18 19 23 23 21 18 16 15 14 14 14 12 12 12 12 13 14 14 14 14 15 15 15 14 13 12 13 16 18 21 23 25 27 28 30 31 33 35 36 37 39 40 41
19 20 21 23 23 21 20 18 17 16 15 14 15 14 14 15 15 16 17 16 17 17 17 17 16 16 16 19 21 24 26 28 29 31 32 34 36 38 40 40 41 41 42
18 21 23 23 22 22 20 18 18 17 16 16 16 15 15 15 17 19 19 19 19 19 20 19 19 20 21 22 24 26 29 30 32 35 36 37 38 40 41 42 43 43 43
18 21 24 23 24 23 21 20 20 18 16 17 17 17 17 18 18 20 21 20 21 22 23 22 23 24 25 26 27 30 32 34 36 39 39 41 40 42 43 43 44 45 45
20 19 20 24 26 25 22 20 18 18 18 19 19 19 20 20 20 20 22 22 23 25 25 26 28 29 30 31 32 34 36 38 39 41 42 44 45 45 45 47 47 48 48
22 20 20 22 22 23 22 22 21 20 21 22 22 21 19 20 20 22 23 23 26 27 27 29 32 33 35 36 37 38 39 40 42 43 45 46 48 48 49 49 49 50 50
24 23 23 23 24 23 23 23 24 25 24 21 21 19 18 20 22 23 24 24 25 27 29 31 34 36 39 40 41 43 43 43 45 47 48 49 51 52 51 52 52 51 51
28 26 23 25 24 25 25 26 23 22 20 18 19 19 21 24 23 23 23 25 26 28 31 33 36 38 41 42 43 45 46 46 48 49 49 49 49 49 51 51 51 51 52
27 26 29 30 28 28 27 25 23 22 21 21 22 24 25 23 22 23 25 26 27 29 31 35 37 39 41 43 45 48 50 48 50 49 49 49 50 50 50 49 51 54 55
32 34 33 31 31 29 28 25 25 24 23 25 25 25 26 26 26 27 27 30 32 33 35 38 41 42 45 46 48 50 52 53 53 53 52 52 52 53 53 52 52 52 55
37 39 40 36 33 32 31 28 28 27 28 29 26 28 29 30 30 31 32 34 36 38 39 41 44 46 48 50 52 53 55 56 57 58 57 55 56 56 55 55 56 55 56
35 38 41 42 38 32 30 29 29 32 32 31 32 32 31 33 33 34 36 37 38 39 41 43 45 46 49 51 53 55 57 58 58 61 62 61 62 60 60 58 58 57 59
Wind_Direction
95 122 118 124 102 88 117 135 131 123 115 108 92 87 84 87 72 74 90 90 86 87 101 106 109 105 101 94 83 74 70 66 67 67 64 58 51 43 42 39 36 34 35
118 124 114 122 106 90 113 136 133 126 122 112 102 99 104 90 80 87 92 98 94 101 111 110 107 104 96 86 77 73 71 74 74 68 62 55 48 46 43 36 31 31 27
109 134 133 137 111 83 125 143 138 133 126 119 113 109 105 85 90 94 116 110 110 114 114 118 116 107 99 89 83 84 80 77 73 71 64 58 53 51 41 31 24 18 9
111 127 132 127 124 116 134 138 139 136 133 130 126 117 106 86 81 98 112 112 120 127 135 134 119 104 90 84 84 82 82 83 75 63 57 51 49 50 33 19 11 3 359
128 138 151 135 128 130 139 139 140 141 142 135 127 126 113 103 109 116 130 141 144 144 138 127 107 95 90 88 88 94 86 70 59 53 47 33 24 12 1 356 351 349 345
132 154 158 145 133 133 133 141 141 138 147 141 130 131 123 139 134 163 151 146 149 145 139 129 110 97 97 97 87 71 65 57 40 20 4 3 1 353 343 335 335 337 336
120 137 147 151 134 134 141 139 142 149 154 138 138 141 142 126 152 168 152 146 152 163 151 106 73 66 55 59 55 32 334 313 322 324 319 329 324 321 319 318 319 321 324
130 143 148 157 156 140 145 149 154 155 164 157 158 168 158 147 155 172 171 166 174 220 67 75 81 111 217 270 292 296 294 301 308 307 309 310 309 310 311 310 309 311 316
146 149 156 160 159 157 154 161 162 167 175 178 178 187 190 174 166 196 213 239 260 304 309 281 245 238 253 279 287 287 294 304 307 306 307 307 308 309 308 305 307 311 313
171 161 167 163 164 164 166 180 180 181 182 186 190 198 219 227 213 233 243 259 270 308 301 282 276 282 292 295 297 305 310 312 311 311 311 310 311 309 310 309 311 312 311
187 183 178 181 177 166 165 167 178 191 189 192 208 222 214 210 208 234 253 274 289 296 303 291 286 287 296 304 310 316 316 315 317 316 314 313 311 310 311 311 311 311 312
193 201 188 185 180 179 178 181 190 210 222 221 226 230 229 227 222 239 247 248 248 259 268 270 279 291 302 314 318 318 318 319 319 319 317 316 317 316 316 315 315 315 315
202 202 202 195 195 195 196 196 194 192 206 246 272 254 230 222 224 231 241 247 249 253 260 272 284 298 311 316 317 317 319 321 323 324 327 326 324 322 322 320 318 317 316
201 201 211 208 206 208 208 203 202 202 211 227 235 242 249 249 252 258 263 267 266 267 272 282 301 315 311 314 315 317 318 320 324 326 325 324 324 324 323 320 320 320 319
215 201 208 213 213 216 218 219 217 215 221 233 245 254 255 258 258 258 266 272 275 277 280 289 298 299 301 305 308 311 316 320 319 318 319 320 320 319 319 319 319 319 319
228 217 212 214 221 222 226 231 236 235 238 240 244 250 260 268 271 264 260 262 266 272 279 283 286 289 292 298 305 311 313 313 314 316 316 316 316 317 318 318 317 317 319
229 228 225 220 220 224 227 232 241 245 244 244 247 253 262 269 274 273 265 265 268 271 271 276 283 289 295 298 302 306 308 312 315 315 315 315 316 315 315 315 315 315 314
234 223 225 229 225 226 229 231 236 239 244 248 248 252 257 261 262 267 266 267 268 269 272 277 281 284 292 297 302 304 308 310 311 312 312 311 312 311 312 312 312 312 313
233 237 233 228 231 234 236 238 239 239 241 244 245 247 255 262 267 269 268 268 270 269 274 279 283 288 292 297 302 304 307 307 308 309 309 309 310 310 309 310 311 312 313
235 234 233 233 234 235 236 237 236 236 239 240 243 247 254 261 262 265 266 270 273 273 276 279 284 290 295 299 300 301 303 305 307 307 310 309 309 308 309 310 311 312 312
232 234 232 234 232 232 233 234 233 232 237 241 250 255 257 258 258 260 265 272 276 275 277 281 286 291 295 297 300 302 304 306 307 310 310 310 309 309 310 312 311 311 310
230 235 239 239 237 234 233 234 236 239 241 244 249 252 250 254 266 274 276 275 278 282 286 288 290 293 296 300 302 304 305 307 307 308 308 308 307 307 307 309 310 310 311
234 236 239 238 239 238 240 244 244 244 241 239 244 252 262 268 270 271 274 279 284 286 288 290 293 297 299 302 303 303 302 303 304 304 305 305 304 305 305 307 310 311 312
239 240 239 243 244 246 248 248 250 250 249 250 253 259 262 265 269 273 280 285 287 288 290 293 295 297 298 299 299 299 299 300 301 303 304 305 305 305 307 310 311 310 310
241 244 242 242 245 246 246 249 252 254 255 257 261 265 272 276 278 282 283 284 286 288 290 289 291 292 294 296 297 298 298 301 303 303 303 304 304 306 308 309 308 307 306
242 243 243 243 246 250 252 254 257 258 260 265 267 267 272 277 280 283 283 283 284 284 286 289 290 293 294 296 298 300 301 302 302 304 306 307 309 311 312 313 310 306 305
Height
5861 5863 5864 5866 5867 5867 5865 5868 5871 5874 5876 5878 5878 5878 5879 5880 5881 5881 5881 5882 5881 5882 5882 5883 5884 5884 5884 5884 5884 5884 5883 5882 5881 5881 5880 5879 5878 5877 5876 5875 5873 5872 5869
5863 5864 5865 5866 5867 5868 5869 5871 5872 5874 5876 5877 5878 5878 5880 5881 5882 5883 5882 5883 5883 5883 5884 5885 5886 5886 5886 5885 5885 5884 5884 5883 5882 5882 5881 5880 5879 5878 5876 5875 5873 5872 5870
5865 5865 5866 5867 5868 5869 5870 5871 5872 5875 5876 5877 5878 5879 5881 5882 5883 5884 5884 5884 5884 5885 5886 5886 5886 5886 5886 5886 5885 5884 5884 5884 5883 5882 5881 5880 5879 5877 5876 5874 5873 5872 5871
5866 5867 5868 5867 5868 5870 5871 5872 5874 5875 5877 5878 5879 5880 5882 5884 5885 5885 5886 5886 5886 5886 5887 5887 5887 5887 5887 5887 5886 5885 5885 5885 5884 5883 5882 5881 5879 5877 5875 5873 5872 5871 5869
5867 5868 5869 5868 5869 5871 5872 5873 5875 5877 5878 5880 5881 5882 5883 5885 5885 5886 5887 5887 5887 5887 5889 5889 5888 5888 5888 5888 5887 5886 5886 5886 5885 5884 5883 5881 5880 5878 5876 5875 5873 5870 5868
5868 5868 5870 5871 5871 5872 5873 5875 5877 5879 5880 5881 5882 5883 5884 5885 5885 5887 5888 5888 5888 5889 5889 5890 5889 5889 5889 5889 5889 5888 5887 5886 5885 5884 5882 5881 5879 5877 5875 5873 5871 5869 5867
5868 5869 5870 5872 5873 5874 5874 5876 5878 5880 5881 5882 5882 5883 5885 5885 5886 5888 5889 5889 5890 5891 5891 5891 5891 5891 5890 5890 5889 5887 5886 5885 5885 5883 5881 5880 5878 5876 5874 5871 5868 5866 5864
5869 5870 5871 5873 5876 5876 5876 5877 5878 5880 5882 5883 5884 5885 5886 5886 5887 5889 5890 5891 5891 5892 5892 5892 5891 5891 5890 5889 5888 5888 5886 5885 5884 5882 5880 5878 5876 5874 5872 5869 5866 5863 5861
5871 5870 5871 5873 5875 5877 5877 5877 5878 5880 5881 5883 5884 5886 5887 5887 5888 5889 5889 5890 5891 5892 5892 5892 5891 5890 5889 5889 5888 5886 5885 5883 5882 5880 5878 5876 5874 5872 5869 5866 5863 5860 5857
5872 5872 5873 5873 5874 5876 5878 5879 5880 5881 5882 5883 5884 5885 5886 5887 5888 5889 5889 5890 5891 5892 5892 5892 5891 5891 5889 5888 5887 5886 5884 5882 5881 5879 5877 5875 5872 5869 5867 5863 5860 5856 5853
5871 5872 5873 5874 5875 5876 5878 5880 5882 5883 5882 5883 5884 5885 5886 5887 5887 5888 5889 5890 5891 5891 5892 5891 5889 5888 5888 5887 5886 5885 5883 5881 5879 5877 5874 5871 5868 5865 5862 5859 5855 5851 5848
5869 5872 5872 5873 5874 5876 5877 5878 5881 5883 5884 5884 5884 5884 5885 5886 5887 5888 5888 5889 5890 5889 5889 5889 5887 5886 5886 5885 5884 5883 5881 5879 5877 5874 5871 5868 5866 5862 5859 5855 5851 5848 5844
5868 5870 5872 5873 5873 5875 5876 5878 5879 5880 5882 5884 5884 5884 5883 5883 5884 5885 5887 5888 5888 5887 5887 5887 5886 5886 5885 5884 5882 5880 5878 5877 5874 5872 5869 5866 5862 5859 5855 5851 5848 5844 5840
5866 5868 5871 5872 5873 5874 5876 5877 5878 5879 5880 5880 5881 5882 5883 5884 5885 5885 5886 5887 5887 5886 5886 5885 5886 5885 5883 5881 5879 5877 5875 5873 5871 5869 5866 5863 5859 5855 5851 5847 5843 5839 5836
5866 5866 5868 5870 5872 5873 5875 5876 5876 5877 5878 5879 5879 5880 5881 5881 5882 5883 5884 5885 5884 5884 5884 5884 5883 5883 5881 5879 5877 5874 5872 5870 5867 5864 5860 5857 5853 5850 5846 5842 5838 5834 5830
5863 5863 5866 5867 5869 5870 5872 5874 5874 5875 5876 5877 5877 5878 5878 5879 5880 5880 5880 5880 5880 5880 5880 5880 5879 5878 5877 5875 5873 5871 5868 5865 5862 5859 5856 5853 5849 5845 5842 5838 5833 5828 5824
5860 5861 5862 5863 5865 5867 5868 5869 5871 5872 5873 5873 5874 5875 5875 5876 5877 5877 5876 5876 5876 5876 5876 5875 5875 5874 5873 5872 5870 5867 5864 5861 5858 5854 5851 5848 5844 5839 5835 5831 5827 5822 5817
5857 5857 5858 5861 5861 5862 5864 5865 5866 5868 5869 5870 5871 5871 5872 5872 5872 5871 5872 5872 5872 5871 5871 5870 5870 5868 5867 5867 5865 5863 5861 5858 5854 5849 5845 5840 5837 5833 5828 5824 5820 5815 5810
5853 5855 5856 5857 5858 5859 5861 5862 5863 5864 5865 5865 5865 5867 5868 5869 5869 5868 5868 5867 5866 5865 5866 5867 5865 5864 5862 5861 5860 5858 5855 5851 5847 5844 5839 5834 5830 5826 5821 5816 5813 5809 5804
5849 5850 5853 5853 5854 5855 5856 5857 5858 5860 5860 5861 5861 5862 5863 5863 5863 5862 5862 5862 5862 5863 5862 5861 5860 5859 5857 5856 5854 5851 5848 5844 5841 5837 5834 5829 5824 5819 5815 5810 5806 5801 5796
5845 5846 5847 5849 5850 5852 5852 5852 5853 5854 5855 5857 5858 5859 5859 5858 5856 5856 5856 5857 5857 5856 5856 5855 5854 5853 5851 5849 5848 5845 5842 5839 5836 5832 5827 5822 5816 5811 5807 5804 5798 5792 5787
5838 5840 5843 5844 5846 5846 5847 5848 5850 5850 5852 5854 5854 5855 5853 5852 5854 5855 5854 5853 5853 5852 5852 5850 5848 5847 5844 5843 5840 5837 5835 5833 5827 5823 5819 5815 5810 5805 5799 5793 5789 5785 5780
5834 5836 5836 5837 5839 5841 5842 5845 5847 5848 5848 5848 5848 5848 5850 5850 5849 5851 5849 5849 5849 5848 5846 5844 5842 5840 5837 5835 5833 5828 5824 5823 5819 5815 5810 5805 5800 5796 5791 5787 5781 5775 5772
5831 5828 5830 5834 5835 5837 5838 5840 5842 5843 5844 5843 5843 5844 5845 5845 5845 5845 5846 5845 5844 5842 5840 5838 5835 5833 5829 5826 5823 5818 5815 5811 5808 5806 5801 5797 5792 5787 5783 5779 5775 5768 5761
5821 5823 5825 5827 5830 5831 5833 5835 5838 5839 5839 5838 5840 5840 5840 5840 5840 5840 5840 5839 5837 5835 5833 5830 5827 5824 5821 5818 5814 5809 5806 5802 5799 5793 5791 5787 5783 5778 5773 5769 5764 5757 5750
5813 5813 5818 5821 5824 5827 5829 5831 5833 5834 5835 5835 5835 5835 5834 5834 5834 5834 5832 5831 5829 5828 5824 5822 5819 5817 5813 5809 5805 5800 5795 5793 5789 5784 5780 5778 5773 5770 5763 5757 5751 5744 5738